Home > Weather > Post Falls > Past weeks

Flag for USA Past Weather in Post Falls, Idaho, USA — Yesterday and Last 2 Weeks

Now
66 °F

Clear.


Feels Like: 66 °F
Forecast: 55 / 79 °F
Wind: 12 mph from Northeast

Location: Coeur d'Alene Weather Reporting System

Current Time: Aug 28, 2016 at 12:13:04 AM

Latest Report: Aug 27, 2016 at 11:35 PM


Visibility: 10 mi

Pressure: 29.81 "Hg (27.58 "Hg at 664m altitude)

Humidity: 37%

Dew Point: 39 °F

Location of Post FallsLocation

Past Weather in Post Falls — Graph

°F

Post Falls Temperature Yesterday

Maximum temperature yesterday: 84 °F (at 12:15 PM)
Minimum temperature yesterday: 61 °F (at 5:55 AM)
Average temperature yesterday: 73 °F

High & Low Weather Summary for the Past Weeks

 TemperatureHumidityPressure
High93 °F (Aug 16, 3:55 PM)88% (Aug 23, 5:35 AM)30.24 "Hg (Aug 23, 5:35 AM)
Low48 °F (Aug 20, 3:55 AM)10% (Aug 22, 5:15 AM)29.65 "Hg (Aug 21, 6:35 PM)
Average71 °F40%29.98 "Hg
* Reported Aug 12 10:15 PM — Aug 27 10:55 PM, Post Falls, Weather by CustomWeather, © 2016

Note: Actual official high and low records may vary slightly from our data, if they occured in-between our weather recording intervals... More about our weather records

Advertising

Post Falls Weather History for the Previous 24 Hours

Scroll right to see more
 ConditionsComfort  
Time TempWeatherWind HumidityBarometerVisibility
10:55 PM
Sat, Aug 27
64 °FClear.N/A46%29.80 "Hg10 mi
10:35 PM63 °FClear.N/A52%29.79 "Hg10 mi
10:15 PM66 °FClear.N/A46%29.78 "Hg10 mi
9:55 PM68 °FClear.8 mph43%29.78 "Hg10 mi
9:35 PM70 °FClear.8 mph43%29.77 "Hg10 mi
8:55 PM73 °FClear.9 mph38%29.77 "Hg10 mi
8:35 PM73 °FSunny.13 mph38%29.76 "Hg10 mi
8:15 PM75 °FSunny.12 mph36%29.75 "Hg10 mi
7:55 PM75 °FSunny.10 mph34%29.74 "Hg10 mi
7:35 PM77 °FPassing clouds.13 mph32%29.74 "Hg10 mi
7:15 PM79 °FScattered clouds.8 mph28%29.73 "Hg10 mi
6:55 PM79 °FScattered clouds.15 mph28%29.72 "Hg10 mi
6:35 PM79 °FScattered clouds.15 mph28%29.72 "Hg10 mi
6:15 PM79 °FPassing clouds.10 mph28%29.71 "Hg10 mi
5:55 PM81 °FScattered clouds.12 mph26%29.71 "Hg10 mi
5:35 PM81 °FScattered clouds.14 mph26%29.72 "Hg10 mi
5:15 PM82 °FSunny.16 mph25%29.72 "Hg10 mi
4:55 PM82 °FPassing clouds.17 mph23%29.72 "Hg10 mi
4:35 PM82 °FPassing clouds.17 mph25%29.71 "Hg10 mi
4:15 PM84 °FSunny.17 mph23%29.71 "Hg10 mi
3:55 PM84 °FSunny.23 mph23%29.70 "Hg10 mi
3:35 PM84 °FSunny.18 mph23%29.71 "Hg10 mi
2:55 PM82 °FSunny.16 mph25%29.71 "Hg10 mi
2:35 PM84 °FSunny.18 mph23%29.71 "Hg10 mi
2:15 PM84 °FSunny.17 mph23%29.71 "Hg10 mi
1:55 PM84 °FSunny.13 mph23%29.72 "Hg10 mi
1:35 PM82 °FSunny.14 mph25%29.73 "Hg10 mi
1:15 PM82 °FSunny.20 mph25%29.73 "Hg10 mi
12:55 PM84 °FSunny.22 mph23%29.73 "Hg10 mi
12:35 PM84 °FSunny.23 mph23%29.73 "Hg10 mi
12:15 PM84 °FSunny.17 mph25%29.73 "Hg10 mi
11:55 AM82 °FSunny.18 mph25%29.74 "Hg10 mi
11:35 AM82 °FSunny.16 mph25%29.75 "Hg10 mi
11:15 AM82 °FSunny.17 mph25%29.75 "Hg10 mi
10:55 AM81 °FSunny.10 mph26%29.76 "Hg10 mi
10:35 AM79 °FSunny.14 mph28%29.76 "Hg10 mi
10:15 AM75 °FSunny.12 mph31%29.77 "Hg10 mi
9:55 AM75 °FSunny.N/A29%29.77 "Hg10 mi
9:35 AM75 °FSunny.14 mph27%29.77 "Hg10 mi
9:15 AM73 °FSunny.9 mph29%29.78 "Hg10 mi
8:55 AM73 °FSunny.14 mph29%29.78 "Hg10 mi
8:35 AM70 °FSunny.6 mph40%29.77 "Hg10 mi
8:15 AM66 °FSunny.8 mph46%29.77 "Hg10 mi
7:55 AM66 °FSunny.8 mph46%29.77 "Hg10 mi
7:35 AM66 °FSunny.10 mph46%29.77 "Hg10 mi
7:15 AM64 °FSunny.12 mph49%29.76 "Hg10 mi
6:55 AM61 °FClear.5 mph59%29.76 "Hg10 mi
6:35 AM61 °FClear.3 mph55%29.77 "Hg10 mi
6:15 AM63 °FClear.7 mph56%29.76 "Hg10 mi
5:55 AM61 °FClear.No wind55%29.77 "Hg10 mi
5:35 AM63 °FClear.3 mph52%29.77 "Hg10 mi
5:15 AM64 °FClear.5 mph49%29.77 "Hg10 mi
4:55 AM64 °FClear.8 mph49%29.77 "Hg10 mi
4:35 AM64 °FClear.8 mph49%29.77 "Hg10 mi
4:15 AM66 °FClear.8 mph46%29.77 "Hg10 mi
3:55 AM66 °FClear.10 mph43%29.77 "Hg10 mi
3:35 AM64 °FClear.7 mph49%29.77 "Hg10 mi
3:15 AM64 °FClear.6 mph49%29.77 "Hg10 mi
2:55 AM64 °FClear.6 mph49%29.78 "Hg10 mi
2:35 AM66 °FClear.6 mph46%29.78 "Hg10 mi
2:15 AM66 °FClear.7 mph46%29.78 "Hg10 mi
1:55 AM66 °FClear.8 mph49%29.79 "Hg10 mi
1:35 AM68 °FPassing clouds.8 mph43%29.80 "Hg10 mi
1:15 AM70 °FPassing clouds.9 mph40%29.80 "Hg10 mi
12:55 AM70 °FClear.9 mph40%29.81 "Hg10 mi
12:35 AM66 °FClear.10 mph49%29.81 "Hg10 mi
12:15 AM68 °FClear.8 mph43%29.81 "Hg10 mi
Weather by CustomWeather, © 2016

See weather overviewHow to use our weather pages